GW4332 Weather Reports


time (UTC)temp
F
wind
direction
speed
knots
gust
knots
rain 1hr
in
rain 24hr
in
rain mn
in
humidity
%
barometer
mb
20260505214030 51 43 7.0 12.2 0.00 0.00 0.00 79 1010.7
20260505213030 51 49 8.7 13.9 0.00 0.00 0.00 79 1010.7
20260505212030 51 40 8.7 13.9 0.00 0.00 0.00 78 1010.7
20260505211030 51 47 7.8 13.9 0.00 0.00 0.00 78 1010.7
20260505210030 51 34 9.6 15.6 0.00 0.00 0.00 77 1010.8
20260505205030 51 39 9.6 15.6 0.00 0.00 0.00 76 1010.9
20260505204030 51 42 7.8 15.6 0.00 0.00 0.00 76 1010.9
20260505203030 51 61 8.7 15.6 0.00 0.00 0.00 74 1011.1
20260505202029 51 46 7.8 12.2 0.00 0.00 0.00 73 1011.0
20260505201029 51 46 7.8 14.8 0.00 0.00 0.00 71 1011.0
20260505200030 51 39 7.8 14.8 0.00 0.00 0.00 70 1010.9
20260505195030 51 54 6.1 12.2 0.00 0.00 0.00 70 1010.8
20260505194030 51 40 7.8 12.2 0.00 0.00 0.00 70 1010.7
20260505193030 52 31 7.8 13.0 0.00 0.00 0.00 70 1010.6
20260505192030 52 40 9.6 16.5 0.00 0.00 0.00 70 1010.6
20260505191030 52 47 7.8 13.0 0.00 0.00 0.00 70 1010.5
20260505190030 53 41 7.8 14.8 0.00 0.00 0.00 71 1010.3
20260505185029 53 36 7.8 14.8 0.00 0.00 0.00 70 1010.3
20260505184029 53 42 7.0 12.2 0.00 0.00 0.00 71 1010.2
20260505183030 53 31 7.8 13.0 0.00 0.00 0.00 71 1010.2
20260505182030 53 44 7.8 13.9 0.00 0.00 0.00 70 1010.2
20260505181030 54 31 7.8 12.2 0.00 0.00 0.00 71 1010.3
20260505180030 54 43 7.8 13.0 0.00 0.00 0.00 69 1010.3
20260505175029 54 40 7.8 13.9 0.00 0.00 0.00 68 1010.3
20260505174029 55 22 7.8 12.2 0.00 0.00 0.00 68 1010.4
20260505173030 55 40 7.8 13.9 0.00 0.00 0.00 68 1010.3
20260505172030 55 44 7.8 13.9 0.00 0.00 0.00 67 1010.5
20260505171030 55 38 8.7 15.6 0.00 0.00 0.00 68 1010.3
20260505170030 55 29 7.0 13.0 0.00 0.00 0.00 68 1010.4
20260505165030 55 39 7.0 13.0 0.00 0.00 0.00 68 1010.3
20260505164030 56 41 7.8 12.2 0.00 0.00 0.00 67 1010.4
20260505163030 56 40 6.1 11.3 0.00 0.00 0.00 67 1010.4
20260505162030 56 36 7.8 13.0 0.00 0.00 0.00 66 1010.4
20260505161029 56 46 7.0 14.8 0.00 0.00 0.00 67 1010.5
20260505153029 57 5 9.6 16.5 0.00 0.00 0.00 68 1010.4
20260505152030 57 347 8.7 14.8 0.00 0.00 0.00 69 1010.4
20260505151030 57 14 9.6 16.5 0.00 0.00 0.00 68 1010.4
20260505125030 57 1 9.6 14.8 0.00 0.00 0.00 68 1011.1
20260505124030 57 18 9.6 13.9 0.00 0.00 0.00 68 1011.1
20260505123030 56 13 8.7 13.9 0.00 0.00 0.00 70 1011.2
20260505122029 56 358 7.8 13.0 0.00 0.00 0.00 69 1011.3
20260505121029 57 27 7.8 13.9 0.00 0.00 0.00 68 1011.2
20260505120030 56 38 5.2 12.2 0.00 0.00 0.00 67 1011.2
20260505115029 56 34 5.2 12.2 0.00 0.00 0.00 68 1011.4
20260505114030 55 55 6.1 13.0 0.00 0.00 0.00 68 1011.3
20260505113030 55 25 6.1 13.0 0.00 0.00 0.00 69 1011.4
20260505112030 55 14 6.1 11.3 0.00 0.00 0.00 70 1011.4
20260505111030 55 36 6.1 13.0 0.00 0.00 0.00 70 1011.5
20260505102029 52 58 6.1 10.4 0.00 0.00 0.00 75 1011.9
20260505101029 53 42 6.1 10.4 0.00 0.00 0.00 76 1012.0
20260505100029 52 41 6.1 12.2 0.00 0.00 0.00 77 1011.9
20260505095029 52 41 6.1 12.2 0.00 0.00 0.00 79 1012.0
20260505094030 52 43 5.2 11.3 0.00 0.00 0.00 79 1011.9
20260505093030 51 48 7.0 13.0 0.00 0.00 0.00 80 1012.1
20260505092030 51 52 5.2 11.3 0.00 0.00 0.00 82 1012.1
20260505091030 51 55 7.0 11.3 0.00 0.00 0.00 83 1011.9
20260505090030 50 47 7.8 12.2 0.00 0.00 0.00 85 1012.0
20260505085030 50 45 7.8 12.2 0.00 0.00 0.00 85 1011.8
20260505084030 50 48 7.0 11.3 0.00 0.00 0.00 86 1012.0
20260505083030 50 56 7.8 13.0 0.00 0.00 0.00 86 1012.1
20260505082030 50 57 7.8 13.0 0.00 0.00 0.00 87 1012.1
20260505081030 49 44 8.7 12.2 0.00 0.00 0.00 87 1012.3
20260505080030 49 53 6.1 11.3 0.00 0.00 0.00 88 1012.3
20260505075029 49 63 5.2 11.3 0.00 0.00 0.00 88 1012.3
20260505074030 49 53 5.2 9.6 0.00 0.00 0.00 88 1012.4
20260505073030 49 64 7.0 11.3 0.00 0.00 0.00 88 1012.4
20260505072030 49 55 5.2 10.4 0.00 0.00 0.00 88 1012.5
20260505071030 49 63 4.3 7.8 0.00 0.00 0.00 88 1012.6
20260505070030 48 64 5.2 12.2 0.00 0.00 0.00 88 1012.7
20260505065029 49 63 5.2 11.3 0.00 0.00 0.00 88 1012.6
20260505064029 49 67 5.2 10.4 0.00 0.00 0.00 88 1012.6
20260505063030 48 74 5.2 10.4 0.00 0.00 0.00 88 1012.5
20260505062030 49 54 5.2 10.4 0.00 0.00 0.00 88 1012.5
20260505061030 48 58 6.1 11.3 0.00 0.00 0.00 88 1012.4
20260505060030 48 52 5.2 10.4 0.00 0.00 0.00 88 1012.4
20260505055030 48 60 7.0 12.2 0.00 0.00 0.00 88 1012.3
20260505054030 48 56 6.1 11.3 0.00 0.00 0.00 88 1012.3
20260505053030 48 63 6.1 11.3 0.00 0.00 0.00 88 1012.2
20260505052030 48 60 6.1 11.3 0.00 0.00 0.00 88 1012.1
20260505051029 48 60 5.2 12.2 0.00 0.00 0.00 88 1012.1
20260505041030 49 63 3.5 9.6 0.00 0.00 0.00 87 1012.3
20260505040030 49 59 4.3 8.7 0.00 0.00 0.00 87 1012.3
20260505035030 49 63 5.2 10.4 0.00 0.00 0.00 87 1012.2
20260505034030 49 64 5.2 12.2 0.00 0.00 0.00 87 1012.2
20260505033030 49 62 3.5 8.7 0.00 0.00 0.00 87 1012.1
20260505032030 49 62 6.1 11.3 0.00 0.00 0.00 87 1012.2
20260505031029 49 55 5.2 9.6 0.00 0.00 0.00 87 1012.1
20260505030029 49 59 6.1 9.6 0.00 0.00 0.00 87 1012.1
20260505025029 49 64 6.1 12.2 0.00 0.00 0.00 87 1012.2
20260505024029 49 71 5.2 8.7 0.00 0.00 0.00 87 1012.3
20260505023029 49 61 6.1 11.3 0.00 0.00 0.00 87 1012.4
20260505022029 49 69 6.1 11.3 0.00 0.00 0.00 87 1012.4
20260505021029 50 52 5.2 9.6 0.00 0.00 0.00 87 1012.4
20260505020029 50 47 7.0 13.9 0.00 0.00 0.00 87 1012.5
20260505015029 50 55 7.8 12.2 0.00 0.00 0.00 87 1012.6
20260505014029 50 47 7.0 10.4 0.00 0.00 0.00 87 1012.6
20260505013029 50 43 6.1 11.3 0.00 0.00 0.00 87 1012.6
20260505012030 50 46 6.1 12.2 0.00 0.00 0.00 87 1012.7
20260505011030 50 40 6.1 11.3 0.00 0.00 0.00 87 1012.9
20260505010030 50 38 5.2 10.4 0.00 0.00 0.00 87 1013.0
20260505005030 50 40 6.1 11.3 0.00 0.00 0.00 87 1013.0
20260505004030 51 44 5.2 11.3 0.00 0.00 0.00 87 1013.1
20260505003029 51 30 7.0 12.2 0.00 0.00 0.00 87 1012.9
20260505002029 51 38 6.1 12.2 0.00 0.00 0.00 87 1013.0
20260505001029 51 26 6.1 12.2 0.00 0.00 0.00 87 1013.1
20260505000030 51 32 7.0 12.2 0.00 0.00 0.00 87 1013.1
20260504235030 51 25 6.1 11.3 0.00 0.00 0.00 87 1013.1
20260504234030 51 30 6.1 12.2 0.00 0.00 0.00 87 1013.3
20260504233030 51 43 6.1 10.4 0.00 0.00 0.00 87 1013.2
20260504232029 51 32 7.0 12.2 0.00 0.00 0.00 87 1013.3
20260504231029 51 34 7.0 11.3 0.00 0.00 0.00 86 1013.5
20260504230029 52 47 6.1 11.3 0.00 0.00 0.00 86 1013.5
20260504225029 52 34 7.8 12.2 0.00 0.00 0.00 86 1013.5
20260504224030 52 37 7.8 12.2 0.00 0.00 0.00 86 1013.5
20260504223030 52 37 7.8 12.2 0.00 0.00 0.00 86 1013.5
20260504222030 53 24 6.1 11.3 0.00 0.00 0.00 86 1013.7
20260504221030 53 15 7.0 11.3 0.00 0.00 0.00 86 1013.8
20260504220030 53 23 5.2 9.6 0.00 0.00 0.02 86 1013.8
20260504215030 53 40 6.1 9.6 0.00 0.00 0.02 86 1013.9